Track FLOCK 4P 3 now! 10-day predictions FLOCK 4P 3 is classified as:
1 44812U 19081J 22181.14859787 .00008908 00000-0 31162-3 0 9992 2 44812 97.4048 246.7516 0011284 157.7249 202.4484 15.29698618143866